Flag for Germany Weather past 2 weeks in Calw, Baden-Württemberg, Germany

Now
33 °F

Light snow. Overcast.


Feels Like: 33 °F
Forecast: 31 / 35 °F
Wind: 1 mph from Southwest

Location: Stuttgart-Echterdingen

Current Time: Jan 26, 2015 at 5:47:13 AM

Latest Report: Jan 26, 2015 at 5:00 AM


Visibility: 19 mi

Pressure: 30.39 "Hg

Humidity: 87%

Dew point: 29 °F

Location of CalwLocation

Historic Weather in Calw — Graph

°F

Calw temperature yesterday

Maximum temperature yesterday: 36 °F (at 4:00 PM)
Minimum temperature yesterday: 31 °F (at 12:00 AM)
Average temperature yesterday: 34 °F

Past Weeks' High & Low Weather Summary

 TemperatureHumidityPressure
High58 °F (Jan 13, 3:00 PM)99% (Jan 18, 7:00 AM)30.47 "Hg (Jan 18, 7:00 AM)
Low27 °F (Jan 19, 6:00 AM)30% (Jan 13, 3:00 PM)29.72 "Hg (Jan 16, 5:00 PM)
Average37 °F82%30.05 "Hg
* Reported Jan 11 3:00 AM — Jan 26 3:00 AM, Calw, Weather by CustomWeather, © 2014

Note: Actual official high and low records may vary slightly from our data, if they occured in-between our weather recording intervals... More about our weather records

Advertising

Calw weather history for previous 24 hours

 ConditionsComfort  
Time TempWeatherWind HumidityBarometerVisibility
3:00 AM
Jan 26
33 °FOvercast.1 mph89%30.41 "Hg19 mi
2:00 AM33 °FOvercast.2 mph88%30.41 "Hg19 mi
1:00 AM33 °FOvercast.1 mph87%30.42 "Hg19 mi
12:00 AM33 °FOvercast.1 mph87%30.43 "Hg19 mi
11:00 PM
Jan 25
33 °FOvercast.2 mph85%30.44 "Hg9 mi
9:00 PM34 °FOvercast.1 mph88%30.44 "Hg12 mi
8:00 PM34 °FOvercast.1 mph87%30.45 "Hg12 mi
7:00 PM34 °FOvercast.2 mph85%30.45 "Hg14 mi
6:00 PM35 °FOvercast.3 mph79%30.45 "Hg15 mi
5:00 PM35 °FOvercast.2 mph80%30.43 "Hg17 mi
4:00 PM36 °FOvercast.2 mph81%30.42 "Hg15 mi
3:00 PM36 °FOvercast.3 mph79%30.43 "Hg12 mi
2:00 PM35 °FOvercast.2 mph82%30.44 "Hg11 mi
1:00 PM35 °FOvercast.3 mph85%30.45 "Hg7 mi
12:00 PM34 °FOvercast.3 mph86%30.47 "Hg7 mi
11:00 AM34 °FOvercast.1 mph87%30.47 "Hg6 mi
10:00 AM33 °FOvercast.2 mph87%30.45 "Hg6 mi
9:00 AM32 °FOvercast.3 mph88%30.45 "Hg6 mi
8:00 AM32 °FOvercast.5 mph88%30.43 "Hg6 mi
7:00 AM33 °FOvercast.5 mph89%30.40 "Hg7 mi
6:00 AM32 °FOvercast.3 mph90%30.39 "Hg7 mi
Weather by CustomWeather, © 2014

See weather overviewHow to use our weather pages